Regional Weather Roundup
Issued by NWS Charleston, SC

Current Version | Previous Version | Graphics & Text | Print | Product List | Glossary On
Versions: 1 2 3 4 5 6 7 8 9 10 11 12 13 14 15 16 17 18 19 20 21 22 23 24 25 26 27 28 29 30 31 32 33 34 35 36 37 38 39 40 41 42 43 44 45 46 47 48 49 50
350
ASUS42 KCHS 061127
RWRCHS

REGIONAL WEATHER ROUNDUP
NATIONAL WEATHER SERVICE CHARLESTON SC
600 AM EST SAT FEB 06 2016

NOTE: "FAIR" INDICATES FEW OR NO CLOUDS BELOW 12,000 FEET WITH NO
SIGNIFICANT WEATHER AND/OR OBSTRUCTIONS TO VISIBILITY.

NOT ALL STATIONS ARE QUALITY CONTROLLED BY THE NATIONAL
WEATHER SERVICE. USE DATA WITH CAUTION...ESPECIALLY
DEWPOINT OBSERVATIONS.

NOTICE: OBSERVATIONS FOR THE SAVANNAH-HILTON HEAD INTERNATIONAL AIRPORT
/KSAV/ HAVE BEEN TEMPORARILY REMOVED DUE TO AN ERRONEOUS TEMPERATURE
SENSOR. THE OBSERVATION WILL BE REINTRODUCED ONCE REPAIRS ARE COMPLETE.

SCZ027-030-031-034>040-042>050-061200-
...SOUTHEAST SOUTH CAROLINA...

CITY           SKY/WX    TMP DP  RH WIND       PRES   REMARKS
N CHARLESTON   PTCLDY    36  29  75 NE9       30.37F WCI  29
WATERFRONT PRK   N/A     42  34  73 N7        30.22R
MOUNT PLEASANT PTSUNNY   37  32  81 N6        30.37F WCI  33
JOHNS ISLAND   FAIR      41  30  65 N9        30.37S
PINOPOLIS        N/A     45  34  65 N13       30.29F
MONCKS CORNER  FAIR      32  27  80 NE5       30.38F WCI  27
SUMMERVILLE    FAIR      36  32  87 CALM      30.39R
BEAUFORT MCAS  PTCLDY    38  30  73 N8        30.36F WCI  32
BEAUFORT ARPT  PTSUNNY   41  32  70 N10       30.35F
HILTON HEAD IS NOT AVBL
WALTERBORO     SUNNY     36  32  87 NE5       30.39S WCI  32
ALLENDALE      FAIR      36  30  80 CALM      30.38S

...SOUTHERN MIDLANDS AND PEE DEE...

CITY           SKY/WX    TMP DP  RH WIND       PRES   REMARKS
GEORGETOWN     NOT AVBL
KINGSTREE      NOT AVBL
ORANGEBURG     CLOUDY    30  27  88 NE5       30.40F WCI  25
BARNWELL       FAIR      32  32 100 CALM      30.40R
AIKEN          FAIR      30  21  69 CALM      30.41F
MANNING        FAIR      28  27  93 CALM      30.41F
COLUMBIA       CLOUDY    28  23  81 CALM      30.42R
SUMTER         CLOUDY    29  24  79 NE3       30.40S
FLORENCE       CLEAR     31  29  92 N5        30.44R WCI  26
MYRTLE BEACH   NOT AVBL
N MYRTLE BEACH CLEAR     36  30  79 N5        30.41R WCI  32

$$

GAZ063-065-086>088-099>101-113>116-118-119-134>141-150-061200-
...SOUTHEAST GEORGIA...

CITY           SKY/WX    TMP DP  RH WIND       PRES   REMARKS
SAVANNAH ARPT  MOCLDY    39  27  62 NE7       30.35S WCI  34
HUNTER AAF     MOCLDY    42  27  54 NE9       30.32S
FORT STEWART   CLOUDY    40  30  68 NE2       30.32S
STATESBORO     PTCLDY    37  30  76 N3        30.36S
SYLVANIA       CLOUDY    36  33  87 NE3       30.37S
CLAXTON        CLOUDY    37  33  88 CALM      30.36R

...CSRA...CENTRAL AND FAR SOUTHEAST GEORGIA...

CITY           SKY/WX    TMP DP  RH WIND       PRES   REMARKS
THOMSON        PTCLDY    28  28 100 CALM      30.43S
AUGUSTA-BUSH   PTCLDY    28  27  96 CALM      30.40S
AUGUSTA-DANIEL PTCLDY    37  21  52 NE6       30.39S WCI  32
SWAINSBORO     FAIR      36  27  69 NE7       30.36F WCI  30
VIDALIA        MOCLDY    36  30  80 NE6       30.34S WCI  31
EASTMAN        FAIR      32  32 100 CALM      30.37F
HAZLEHURST     FAIR      38  31  77 CALM      30.33S
ALMA           CLOUDY    40  30  67 N3        30.33R
WAYCROSS       CLOUDY    45  34  66 NE5       30.33R
JESUP          CLOUDY    45  32  61 NE6       30.33S
BAXLEY         CLOUDY    41  32  70 NE7       30.34R
BRUNSWICK      PTCLDY    43  32  65 N6        30.33R
SAINT SIMONS   CLEAR     42  35  76 N8        30.30S

$$

SCZ027-028-034-036>038-045-046-048>050-GAZ119-141-061200-
...LAKE AND SUPPLEMENTAL COASTAL OBSERVATIONS...

STATION/POSITION TIME  TEMP    WIND        PRES    WAVE   SWELL
                       AIR SEA DIR/SP/G            HT/PER HT/PER/DIR
                 (UTC) (F)     (DEG/KT/KT) (MB)    (FT/S) (FT/S/D)
WINYAH BAY       NOT AVBL
LAKE MURRAY      1000   34      CALM  /  2 1029.1R
ACE BASIN NERRS  NOT AVBL
FORT PULASKI     1100   45 55   20/ 14/ 17 1027.5F
SAPELO ISLAND    1000   44      20/ 10     1026.0S

$$

ANZ835-935-AMZ111-154-330-350-352-354-370-450-454-472-061200-
...C-MAN AND BUOY OBSERVATIONS...

STATION/POSITION TIME  TEMP    WIND        PRES    WAVE   SWELL
                       AIR SEA DIR/SP/G            HT/PER HT/PER/DIR
                 (UTC) (F)     (DEG/KT/KT) (MB)    (FT/S) (FT/S/D)
BUOY 41004       1050   52 67   10/ 23/ 27 1026.0R   6/10   5/10
BUOY 41008       1050   50 57   30/ 23/ 27 1025.6F   5/ 4   2/ 90/ 8
FOLLY BEACH CMAN 1100   44      20/ 18/ 22 1027.9F
CAPERS NEARSHORE 1008   47      30/ 17/ 21 1026.9R
FRIPP NEARSHORE  1000   48      20/ 19/ 21 1026.3R


STATION/POSITION TIME  TEMP    WIND        PRES    WAVE   SWELL
                       AIR SEA DIR/SP/G            HT/PER HT/PER/DIR
                 (UTC) (F)     (DEG/KT/KT) (MB)    (FT/S) (FT/S/D)
5E ST. MARYS GA  1021      58                N/A     6/ 5
FRYING PAN BUOY  1100   51 69   20/ 17/ 23 1027.0R
BUOY 41025       1050   46 73  360/ 17/ 21 1028.6R   7/11   7/ 60/11
CAPE LOOKOUT NC  NOT AVBL
BUOY 41002       1050   60 69   80/ 14/ 17   N/A     9/11   8/ 10/11
BUOY 41010       1020   67 73              1021.3F
ST AUGUSTINE FL  1100   55 59  360/ 23/ 27 1024.5R


$$




USA.gov is the U.S. government's official web portal to all federal, state and local government web resources and services.